FW1302 Weather Reports


time (UTC)temp
F
wind
direction
speed
knots
gust
knots
rain 1hr
in
rain 24hr
in
rain mn
in
humidity
%
barometer
mb
20260904234820 60 241 3.5 5.2 0.00 0.00 0.00 77 1025.0
20260904233820 60 199 0.9 3.5 0.00 0.00 0.00 79 1025.0
20260904232818 60 206 4.3 7.0 0.00 0.00 0.00 80 1025.0
20260904231818 60 217 4.3 6.1 0.00 0.00 0.00 82 1024.9
20260904230820 60 191 2.6 7.0 0.00 0.00 0.00 85 1024.8
20260904225823 61 190 0.9 4.3 0.00 0.00 0.00 86 1024.9
20260904224820 61 218 1.7 4.3 0.00 0.00 0.00 86 1024.8
20260904223918 61 232 5.2 6.1 0.00 0.00 0.00 86 1024.8
20260904223821 61 236 4.3 5.2 0.00 0.00 0.00 86 1024.6
20260904222919 61 225 2.6 3.5 0.00 0.00 0.00 84 1024.6
20260904221921 61 204 1.7 2.6 0.00 0.00 0.00 83 1024.4
20260904220920 61 202 0.0 0.0 0.00 0.00 0.00 83 1024.2
20260904220822 61 202 0.0 1.7 0.00 0.00 0.00 83 1024.3
20260904215821 61 180 0.0 0.0 0.00 0.00 0.00 83 1024.2
20260904214818 61 201 2.6 3.5 0.00 0.00 0.00 86 1024.2
20260904213819 61 202 1.7 2.6 0.00 0.00 0.00 88 1024.3
20260904210918 60 225 3.5 4.3 0.00 0.00 0.00 87 1024.1
20260904203919 62 180 0.9 1.7 0.00 0.00 0.00 76 1023.9
20260904202921 63 225 2.6 3.5 0.00 0.00 0.00 73 1023.8
20260904201020 64 292 2.6 3.5 0.00 0.00 0.00 71 1024.0
20260904200021 63 45 0.0 0.0 0.00 0.00 0.00 71 1024.0
20260904194121 63 45 0.0 0.9 0.00 0.00 0.00 71 1024.1
20260904193219 63 45 3.5 4.3 0.00 0.00 0.00 71 1024.3
20260904192219 63 24 2.6 4.3 0.00 0.00 0.00 70 1024.3
20260904191220 62 45 1.7 2.6 0.00 0.00 0.00 73 1024.3
20260904190218 61 67 0.0 0.0 0.00 0.00 0.00 73 1024.4
20260904185221 61 45 0.0 0.9 0.00 0.00 0.00 72 1024.5
20260904184219 61 45 3.5 4.3 0.00 0.00 0.00 74 1024.4
20260904183218 61 45 3.5 4.3 0.00 0.00 0.00 75 1024.4
20260904182219 60 45 4.3 4.3 0.00 0.00 0.00 77 1024.4
20260904181247 60 45 4.3 5.2 0.00 0.00 0.00 77 1024.4
20260904180319 60 40 4.3 6.1 0.00 0.00 0.00 77 1024.3
20260904174420 59 45 3.5 5.2 0.00 0.00 0.00 80 1024.4
20260904173419 58 22 1.7 2.6 0.00 0.00 0.00 81 1024.4
20260904172419 58 45 3.5 3.5 0.00 0.00 0.00 82 1024.3
20260904171419 57 45 4.3 5.2 0.00 0.00 0.00 84 1024.4
20260904165421 57 45 5.2 7.8 0.00 0.00 0.00 85 1024.4
20260904164518 57 45 7.8 10.4 0.00 0.00 0.00 88 1024.3
20260904164420 57 40 6.1 8.7 0.00 0.00 0.00 89 1024.2
20260904163420 56 67 0.0 0.0 0.00 0.00 0.00 89 1024.4
20260904162518 56 67 1.7 4.3 0.00 0.00 0.00 90 1024.4
20260904161520 55 45 0.9 3.5 0.00 0.00 0.00 91 1024.6
20260904160619 55 112 0.0 0.0 0.00 0.00 0.00 91 1024.6
20260904155621 55 112 0.0 0.0 0.00 0.00 0.00 92 1024.5
20260904153719 54 67 0.9 1.7 0.00 0.00 0.00 92 1024.4
20260904152719 54 67 1.7 2.6 0.00 0.00 0.00 92 1024.4
20260904151818 54 45 0.0 0.0 0.00 0.00 0.00 92 1024.4
20260904150819 53 45 0.0 0.0 0.00 0.00 0.00 92 1024.2
20260904145819 53 45 0.9 2.6 0.00 0.00 0.00 93 1024.1
20260904143918 53 90 0.9 1.7 0.00 0.00 0.00 94 1024.1
20260904142922 53 90 2.6 2.6 0.00 0.00 0.00 93 1024.0
20260904142019 53 67 0.0 0.9 0.00 0.00 0.00 94 1023.8
20260904141021 53 45 1.7 2.6 0.00 0.00 0.00 94 1023.7
20260904140120 52 67 0.9 2.6 0.00 0.00 0.00 94 1023.6
20260904135122 52 67 0.0 0.0 0.00 0.00 0.00 94 1023.5
20260904135020 52 67 0.0 0.0 0.00 0.00 0.00 93 1023.5
20260904134021 52 67 0.9 1.7 0.00 0.00 0.00 93 1023.4
20260904133118 52 67 0.9 2.6 0.00 0.00 0.00 93 1023.3
20260904131219 53 67 0.9 0.9 0.00 0.00 0.00 94 1023.1
20260904130245 53 67 0.9 2.6 0.00 0.00 0.00 94 1022.9
20260904130042 53 67 1.7 2.6 0.00 0.00 0.00 94 1022.9
20260904125633 53 67 0.9 1.7 0.00 0.00 0.00 94 1023.0
20260904123721 53 360 0.0 0.9 0.00 0.00 0.00 93 1022.9
20260904122819 53 360 0.0 0.0 0.00 0.00 0.00 95 1022.9
20260904120820 53 360 0.0 0.0 0.00 0.00 0.00 95 1022.9
20260904115819 53 360 0.0 0.0 0.00 0.00 0.00 94 1022.8
20260904115720 53 360 0.0 0.0 0.00 0.00 0.00 93 1022.8
20260904114719 53 360 0.0 0.0 0.00 0.00 0.00 94 1022.8
20260904112918 54 360 0.0 0.0 0.00 0.00 0.00 92 1022.4
20260904112820 54 360 0.0 0.0 0.00 0.00 0.00 92 1022.5
20260904111821 53 338 2.6 5.2 0.00 0.00 0.00 94 1022.6
20260904110819 53 360 1.7 4.3 0.00 0.00 0.00 93 1022.4
20260904105918 53 360 0.9 3.5 0.00 0.00 0.00 94 1022.4
20260904104920 53 10 3.5 5.2 0.00 0.00 0.00 95 1022.2
20260904103920 53 22 0.0 0.9 0.00 0.00 0.00 95 1022.2
20260904101919 53 45 0.9 1.7 0.00 0.00 0.00 94 1022.1
20260904095919 52 45 0.0 1.7 0.00 0.00 0.00 94 1022.0
20260904093921 52 45 0.0 0.0 0.00 0.00 0.00 94 1022.0
20260904093019 53 45 0.0 0.0 0.00 0.00 0.00 94 1021.8
20260904092022 53 45 0.0 0.0 0.00 0.00 0.00 95 1021.8
20260904091921 53 45 0.0 0.0 0.00 0.00 0.00 95 1021.7
20260904091019 53 45 0.0 0.0 0.00 0.00 0.00 93 1021.7
20260904085118 53 45 0.0 0.0 0.00 0.00 0.00 94 1021.7
20260904083120 53 45 2.6 3.5 0.00 0.00 0.00 94 1021.7
20260904082119 53 67 0.0 0.0 0.00 0.00 0.00 94 1021.7
20260904081121 53 337 0.0 0.0 0.00 0.00 0.00 92 1021.7
20260904080219 53 337 0.0 0.0 0.00 0.00 0.00 93 1021.8
20260904075219 54 337 0.0 0.0 0.00 0.00 0.00 93 1021.7
20260904074218 54 337 0.0 0.0 0.00 0.00 0.00 91 1021.7
20260904073221 54 337 0.0 0.0 0.00 0.00 0.00 91 1021.8
20260904072221 54 337 0.0 0.9 0.00 0.00 0.00 92 1021.7
20260904071319 54 360 0.0 0.0 0.00 0.00 0.00 92 1021.8
20260904070320 54 8 0.0 2.6 0.00 0.00 0.00 92 1021.8
20260904065330 54 360 0.0 0.0 0.00 0.00 0.00 90 1021.7
20260904065230 54 360 0.0 0.0 0.00 0.00 0.00 90 1021.7
20260904064232 55 337 0.0 0.0 0.00 0.00 0.00 92 1021.8
20260904063330 55 337 0.0 0.0 0.00 0.00 0.00 91 1021.7
20260904062331 55 337 2.6 3.5 0.00 0.00 0.00 89 1021.7
20260904062230 55 337 3.5 7.0 0.00 0.00 0.00 89 1021.7
20260904060329 56 315 4.3 7.0 0.00 0.00 0.00 87 1021.6
20260904055329 55 325 3.5 5.2 0.00 0.00 0.00 88 1021.7
20260904055227 55 337 2.6 6.1 0.00 0.00 0.00 88 1021.8
20260904054228 55 344 1.7 6.1 0.00 0.00 0.00 88 1021.7
20260904053328 55 343 1.7 7.8 0.00 0.00 0.00 88 1021.5
20260904052329 55 330 4.3 7.0 0.00 0.00 0.00 89 1021.5
20260904051428 55 339 0.0 6.1 0.00 0.00 0.00 89 1021.6
20260904045429 55 22 3.5 3.5 0.00 0.00 0.00 90 1021.7
20260904044429 55 360 4.3 6.1 0.00 0.00 0.00 91 1021.5
20260904043429 56 360 3.5 5.2 0.00 0.00 0.00 90 1021.5
20260904042429 56 360 0.9 3.5 0.00 0.00 0.00 92 1021.6
20260904040430 56 6 4.3 7.0 0.00 0.00 0.00 92 1021.5
20260904035430 56 360 7.0 7.8 0.00 0.00 0.00 93 1021.5
20260904034429 56 360 1.7 5.2 0.00 0.00 0.00 92 1021.5
20260904033528 56 337 2.6 6.1 0.00 0.00 0.00 92 1021.5
20260904032547 56 45 1.7 3.5 0.00 0.00 0.00 93 1021.4
20260904031629 56 135 0.0 0.0 0.00 0.00 0.00 93 1021.1
20260904030631 56 135 2.6 3.5 0.00 0.00 0.00 93 1021.2
20260904025629 56 157 0.9 1.7 0.00 0.00 0.00 93 1021.1
20260904024630 57 180 0.0 0.0 0.00 0.00 0.00 93 1021.0
20260904024531 57 180 0.0 0.0 0.00 0.00 0.00 93 1021.0
20260904022531 58 180 0.0 0.0 0.00 0.00 0.00 92 1021.0
20260904021529 58 180 0.0 0.0 0.00 0.00 0.00 91 1020.9
20260904020532 58 180 0.0 0.0 0.00 0.00 0.00 90 1020.9
20260904015629 58 201 0.0 0.0 0.00 0.00 0.00 91 1021.0
20260904013629 58 225 1.7 4.3 0.00 0.00 0.00 90 1020.9
20260904012629 58 225 2.6 3.5 0.00 0.00 0.00 89 1020.9
20260904011630 59 180 0.0 0.0 0.00 0.01 0.00 87 1020.8
20260904005729 60 223 1.7 2.6 0.00 0.01 0.00 84 1021.0
20260904004828 60 225 4.3 5.2 0.00 0.01 0.00 84 1021.0
20260904003829 61 220 2.6 4.3 0.00 0.01 0.00 82 1020.9
20260904002829 61 225 2.6 3.5 0.00 0.01 0.00 78 1020.7
20260904000928 62 360 1.7 2.6 0.00 0.01 0.00 76 1020.6
20260903235930 62 22 0.0 0.9 0.00 0.01 0.00 77 1020.6
20260903235832 62 22 0.9 1.7 0.00 0.01 0.00 76 1020.5
20260903234929 62 22 0.0 0.9 0.00 0.01 0.00 76 1020.6